| time (UTC) | temp F | wind direction | speed MPH | gust MPH | rain 1hr in | rain 24hr in | rain mn in | humidity % | barometer mb |
| 20260507101511 | 57 | 125 | 0.0 | 0.0 | 0.00 | 0.00 | 0.00 | 82 | 1016.8 |
| 20260507100053 | 58 | 125 | 0.0 | 0.0 | 0.00 | 0.00 | 0.00 | 81 | 1016.8 |
| 20260507094552 | 58 | 125 | 0.0 | 0.0 | 0.00 | 0.00 | 0.00 | 82 | 1016.8 |
| 20260507093038 | 58 | 125 | 0.0 | 0.0 | 0.00 | 0.00 | 0.00 | 81 | 1016.9 |
| 20260507091535 | 58 | 125 | 0.0 | 0.0 | 0.00 | 0.00 | 0.00 | 79 | 1016.9 |
| 20260507090020 | 59 | 125 | 0.0 | 0.0 | 0.00 | 0.00 | 0.00 | 78 | 1017.0 |
| 20260507084518 | 59 | 125 | 0.0 | 0.0 | 0.00 | 0.00 | 0.00 | 77 | 1017.1 |
| 20260507083117 | 60 | 125 | 0.0 | 0.0 | 0.00 | 0.00 | 0.00 | 76 | 1017.1 |
| 20260507081558 | 60 | 125 | 0.0 | 1.0 | 0.00 | 0.00 | 0.00 | 76 | 1017.2 |
| 20260507080114 | 61 | 125 | 0.0 | 0.0 | 0.00 | 0.00 | 0.00 | 76 | 1016.9 |
| 20260507074540 | 61 | 125 | 0.0 | 0.0 | 0.00 | 0.00 | 0.00 | 74 | 1017.0 |
| 20260507073040 | 61 | 125 | 0.0 | 0.0 | 0.00 | 0.00 | 0.00 | 75 | 1017.1 |
| 20260507071554 | 62 | 125 | 0.0 | 0.0 | 0.00 | 0.00 | 0.00 | 73 | 1017.2 |
| 20260507070021 | 62 | 125 | 0.0 | 0.0 | 0.00 | 0.00 | 0.00 | 72 | 1017.1 |
| 20260507064504 | 62 | 125 | 0.0 | 0.0 | 0.00 | 0.00 | 0.00 | 71 | 1017.1 |
| 20260507063004 | 63 | 125 | 0.0 | 0.0 | 0.00 | 0.00 | 0.00 | 70 | 1017.0 |
| 20260507061545 | 63 | 125 | 0.0 | 0.0 | 0.00 | 0.00 | 0.00 | 70 | 1017.1 |
| 20260507060045 | 64 | 125 | 0.0 | 0.0 | 0.00 | 0.00 | 0.00 | 68 | 1017.1 |
| 20260507054527 | 64 | 125 | 0.0 | 0.0 | 0.00 | 0.00 | 0.00 | 67 | 1017.1 |
| 20260507053037 | 65 | 125 | 0.0 | 0.0 | 0.00 | 0.00 | 0.00 | 65 | 1017.1 |
| 20260507051512 | 66 | 125 | 0.0 | 0.0 | 0.00 | 0.00 | 0.00 | 64 | 1017.1 |
| 20260507050011 | 67 | 125 | 0.0 | 0.0 | 0.00 | 0.00 | 0.00 | 62 | 1017.1 |
| 20260507044555 | 67 | 125 | 0.0 | 0.0 | 0.00 | 0.00 | 0.00 | 61 | 1016.9 |
| 20260507043052 | 68 | 125 | 0.0 | 0.0 | 0.00 | 0.00 | 0.00 | 59 | 1016.8 |
| 20260507041532 | 69 | 125 | 0.0 | 1.0 | 0.00 | 0.00 | 0.00 | 58 | 1016.8 |
| 20260507040030 | 69 | 125 | 0.0 | 0.0 | 0.00 | 0.00 | 0.00 | 57 | 1016.7 |
| 20260507034527 | 70 | 125 | 0.0 | 0.0 | 0.00 | 0.00 | 0.00 | 55 | 1016.5 |
| 20260507033020 | 71 | 125 | 0.0 | 2.0 | 0.00 | 0.00 | 0.00 | 54 | 1016.3 |
| 20260507031556 | 72 | 125 | 0.0 | 0.0 | 0.00 | 0.00 | 0.00 | 53 | 1016.2 |
| 20260507030057 | 72 | 125 | 0.0 | 2.0 | 0.00 | 0.00 | 0.00 | 51 | 1016.0 |
| 20260507024540 | 73 | 128 | 0.0 | 3.0 | 0.00 | 0.00 | 0.00 | 50 | 1015.9 |
| 20260507023037 | 74 | 59 | 0.0 | 1.0 | 0.00 | 0.00 | 0.00 | 48 | 1016.0 |
| 20260507021518 | 75 | 59 | 0.0 | 2.0 | 0.00 | 0.00 | 0.00 | 46 | 1015.8 |
| 20260507020020 | 76 | 59 | 0.0 | 3.0 | 0.00 | 0.00 | 0.00 | 45 | 1015.8 |
| 20260507014617 | 77 | 59 | 0.0 | 2.0 | 0.00 | 0.00 | 0.00 | 45 | 1015.8 |
| 20260507013058 | 77 | 58 | 0.0 | 2.0 | 0.00 | 0.00 | 0.00 | 44 | 1015.8 |
| 20260507011542 | 78 | 71 | 0.0 | 5.0 | 0.00 | 0.00 | 0.00 | 43 | 1015.8 |
| 20260507010040 | 79 | 32 | 0.0 | 5.0 | 0.00 | 0.00 | 0.00 | 42 | 1015.9 |
| 20260507004531 | 80 | 42 | 0.0 | 2.0 | 0.00 | 0.00 | 0.00 | 41 | 1016.0 |
| 20260507003021 | 81 | 115 | 0.0 | 3.0 | 0.00 | 0.00 | 0.00 | 40 | 1015.8 |
| 20260507001502 | 81 | 61 | 0.0 | 5.0 | 0.00 | 0.00 | 0.00 | 40 | 1015.9 |
| 20260507000002 | 82 | 131 | 0.0 | 1.0 | 0.00 | 0.00 | 0.00 | 39 | 1015.9 |
| 20260506234544 | 82 | 69 | 0.0 | 3.0 | 0.00 | 0.00 | 0.00 | 38 | 1015.9 |
| 20260506233043 | 82 | 32 | 0.0 | 8.0 | 0.00 | 0.00 | 0.00 | 39 | 1016.0 |
| 20260506231523 | 83 | 24 | 0.0 | 3.0 | 0.00 | 0.00 | 0.00 | 37 | 1016.1 |
| 20260506230021 | 84 | 52 | 0.0 | 3.0 | 0.00 | 0.00 | 0.00 | 37 | 1016.3 |
| 20260506224502 | 84 | 51 | 0.0 | 5.0 | 0.00 | 0.00 | 0.00 | 36 | 1016.4 |
| 20260506223110 | 84 | 93 | 0.0 | 3.0 | 0.00 | 0.00 | 0.00 | 36 | 1016.7 |
| 20260506221542 | 84 | 140 | 0.0 | 2.0 | 0.00 | 0.00 | 0.00 | 36 | 1016.8 |
| 20260506220041 | 84 | 48 | 0.0 | 7.0 | 0.00 | 0.00 | 0.00 | 37 | 1017.0 |
| 20260506214521 | 84 | 60 | 0.0 | 2.0 | 0.00 | 0.00 | 0.00 | 36 | 1017.2 |
| 20260506213017 | 84 | 86 | 0.0 | 4.0 | 0.00 | 0.00 | 0.00 | 36 | 1017.4 |
| 20260506211605 | 83 | 46 | 0.0 | 3.0 | 0.00 | 0.00 | 0.00 | 36 | 1017.6 |
| 20260506210057 | 82 | 43 | 0.0 | 5.0 | 0.00 | 0.00 | 0.00 | 37 | 1017.8 |
| 20260506204543 | 83 | 29 | 0.0 | 3.0 | 0.00 | 0.00 | 0.00 | 37 | 1017.9 |
| 20260506203036 | 83 | 69 | 0.0 | 1.0 | 0.00 | 0.00 | 0.00 | 36 | 1018.0 |
| 20260506201516 | 82 | 69 | 0.0 | 4.0 | 0.00 | 0.00 | 0.00 | 37 | 1018.2 |
| 20260506200019 | 81 | 77 | 0.0 | 3.0 | 0.00 | 0.00 | 0.00 | 38 | 1018.5 |
| 20260506194605 | 82 | 77 | 0.0 | 2.0 | 0.00 | 0.00 | 0.00 | 36 | 1018.6 |
| 20260506193054 | 80 | 78 | 0.0 | 3.0 | 0.00 | 0.00 | 0.00 | 37 | 1018.8 |
| 20260506191530 | 79 | 82 | 0.0 | 3.0 | 0.00 | 0.00 | 0.00 | 39 | 1019.0 |
| 20260506190028 | 77 | 234 | 0.0 | 3.0 | 0.00 | 0.00 | 0.00 | 41 | 1019.1 |
| 20260506184517 | 78 | 72 | 0.0 | 3.0 | 0.00 | 0.00 | 0.00 | 41 | 1019.2 |
| 20260506183015 | 78 | 76 | 0.0 | 1.0 | 0.00 | 0.00 | 0.00 | 42 | 1019.3 |
| 20260506181516 | 78 | 76 | 0.0 | 1.0 | 0.00 | 0.00 | 0.00 | 42 | 1019.4 |
| 20260506180010 | 77 | 76 | 0.0 | 2.0 | 0.00 | 0.00 | 0.00 | 45 | 1019.5 |
| 20260506174505 | 75 | 79 | 0.0 | 2.0 | 0.00 | 0.00 | 0.00 | 48 | 1019.5 |
| 20260506173003 | 74 | 80 | 0.0 | 2.0 | 0.00 | 0.00 | 0.00 | 50 | 1019.5 |
| 20260506171559 | 73 | 86 | 0.0 | 3.0 | 0.00 | 0.00 | 0.00 | 54 | 1019.6 |
| 20260506170058 | 73 | 86 | 0.0 | 2.0 | 0.00 | 0.00 | 0.00 | 52 | 1019.6 |
| 20260506164536 | 72 | 86 | 0.0 | 1.0 | 0.00 | 0.00 | 0.00 | 54 | 1019.7 |
| 20260506163032 | 70 | 86 | 0.0 | 1.0 | 0.00 | 0.00 | 0.00 | 58 | 1019.7 |
| 20260506161511 | 69 | 86 | 0.0 | 1.0 | 0.00 | 0.00 | 0.00 | 57 | 1019.8 |
| 20260506160007 | 68 | 86 | 0.0 | 1.0 | 0.00 | 0.00 | 0.00 | 60 | 1019.9 |
| 20260506154548 | 66 | 86 | 0.0 | 0.0 | 0.00 | 0.00 | 0.00 | 62 | 1019.9 |
| 20260506153042 | 64 | 86 | 0.0 | 1.0 | 0.00 | 0.00 | 0.00 | 67 | 1019.9 |
| 20260506151520 | 62 | 86 | 0.0 | 0.0 | 0.00 | 0.00 | 0.00 | 72 | 1019.9 |
| 20260506150016 | 59 | 86 | 0.0 | 0.0 | 0.00 | 0.00 | 0.00 | 79 | 1019.9 |
| 20260506144606 | 56 | 86 | 0.0 | 0.0 | 0.00 | 0.00 | 0.00 | 82 | 1019.9 |
| 20260506143054 | 54 | 86 | 0.0 | 0.0 | 0.00 | 0.00 | 0.00 | 86 | 1019.8 |
| 20260506141536 | 51 | 86 | 0.0 | 0.0 | 0.00 | 0.00 | 0.00 | 92 | 1019.7 |
| 20260506140034 | 49 | 86 | 0.0 | 0.0 | 0.00 | 0.00 | 0.00 | 93 | 1019.6 |
| 20260506134514 | 48 | 86 | 0.0 | 0.0 | 0.00 | 0.00 | 0.00 | 93 | 1019.4 |
| 20260506133016 | 48 | 86 | 0.0 | 0.0 | 0.00 | 0.00 | 0.00 | 92 | 1019.2 |
| 20260506131556 | 48 | 86 | 0.0 | 0.0 | 0.00 | 0.00 | 0.00 | 92 | 1019.0 |
| 20260506130053 | 48 | 86 | 0.0 | 0.0 | 0.00 | 0.00 | 0.00 | 92 | 1018.9 |
| 20260506124540 | 48 | 86 | 0.0 | 0.0 | 0.00 | 0.00 | 0.00 | 92 | 1018.7 |
| 20260506123038 | 48 | 86 | 0.0 | 0.0 | 0.00 | 0.00 | 0.00 | 91 | 1018.6 |
| 20260506121536 | 48 | 86 | 0.0 | 0.0 | 0.00 | 0.00 | 0.00 | 91 | 1018.5 |
| 20260506120035 | 48 | 86 | 0.0 | 0.0 | 0.00 | 0.00 | 0.00 | 91 | 1018.5 |
| 20260506114533 | 49 | 86 | 0.0 | 0.0 | 0.00 | 0.00 | 0.00 | 91 | 1018.2 |
| 20260506113032 | 49 | 86 | 0.0 | 0.0 | 0.00 | 0.00 | 0.00 | 91 | 1018.2 |
| 20260506111529 | 50 | 86 | 0.0 | 0.0 | 0.00 | 0.00 | 0.00 | 91 | 1018.1 |
| 20260506110029 | 50 | 86 | 0.0 | 0.0 | 0.00 | 0.00 | 0.00 | 91 | 1018.2 |
| 20260506104510 | 50 | 86 | 0.0 | 1.0 | 0.00 | 0.00 | 0.00 | 91 | 1018.1 |
| 20260506103009 | 50 | 86 | 0.0 | 1.0 | 0.00 | 0.00 | 0.00 | 90 | 1018.1 |